Location: München
(48.1351°N, 11.5820°E)
Time: 05:14:47
(UTC+02:00)

ISS - Pass Details

Date: 20 May 2021
Orbit: 417 x 422 km, 51.6° (Epoch: 13 June)

Event Time Altitude Azimuth Distance (km) Brightness Sun altitude
Rises 01:19:04 0° 292° (WNW) 2,370 0.3 -21.9°
Reaches altitude 10° 01:21:10 10° 292° (WNW) 1,505 -0.7 -21.8°
Enters shadow 01:23:07 32° 293° (WNW) 742 -2.4 -21.8°
